Time,TemperatureF,DewpointF,PressureIn,WindDirection,WindDirectionDegrees,WindSpeedMPH,WindSpeedGustMPH,Humidity,HourlyPrecipIn,Conditions,Clouds,dailyrainin,SoftwareType,DateUTC
2013-07-09 00:01:00,71.6,68.2,-100.00,SW,225,0.0,0.0,89,0.00,,,0.00,WSDL version 420,2013-07-09 04:01:00,
2013-07-09 00:05:00,71.6,68.4,29.26,SW,225,0.0,0.0,90,0.00,,,0.00,WSDL version 420,2013-07-09 04:05:00,
2013-07-09 00:06:00,71.6,68.5,29.26,SW,225,0.0,0.0,90,0.00,,,0.00,WSDL version 420,2013-07-09 04:06:00,
2013-07-09 00:08:00,71.5,68.5,-100.00,SW,225,0.0,0.0,90,0.00,,,0.00,WSDL version 420,2013-07-09 04:08:00,
2013-07-09 00:14:00,71.4,68.3,29.29,SW,225,0.0,0.0,90,0.00,,,0.00,WSDL version 420,2013-07-09 04:14:00,
2013-07-09 00:20:00,71.4,68.7,29.29,SW,225,0.0,0.0,91,0.00,,,0.00,WSDL version 420,2013-07-09 04:20:00,
2013-07-09 00:24:00,71.4,68.7,-100.00,SW,225,0.0,0.0,91,0.00,,,0.00,WSDL version 420,2013-07-09 04:24:00,
2013-07-09 00:31:00,71.4,68.5,-100.00,SSW,203,0.0,0.0,91,0.00,,,0.00,WSDL version 420,2013-07-09 04:31:00,
2013-07-09 00:38:00,71.4,68.7,-100.00,SSW,203,0.0,0.0,91,-99.99,,,-99.99,WSDL version 420,2013-07-09 04:38:00,
2013-07-09 00:43:00,71.4,68.7,29.26,SSW,210,0.0,0.0,91,0.00,,,0.00,WSDL version 420,2013-07-09 04:43:00,
2013-07-09 00:49:00,71.4,68.7,29.26,SSW,203,0.0,0.0,91,0.00,,,0.00,WSDL version 420,2013-07-09 04:49:00,
2013-07-09 00:54:00,71.4,68.4,29.26,SSW,203,0.0,0.0,91,0.00,,,0.00,WSDL version 420,2013-07-09 04:54:00,
2013-07-09 01:00:00,71.4,68.7,29.26,SSW,203,0.0,0.0,91,0.00,,,0.00,WSDL version 420,2013-07-09 05:00:00,
2013-07-09 01:06:00,71.4,68.3,29.26,SSW,203,0.0,0.0,90,-99.99,,,-99.99,WSDL version 420,2013-07-09 05:06:00,
2013-07-09 01:13:00,71.2,68.2,29.26,SW,218,0.0,0.0,90,-99.99,,,-99.99,WSDL version 420,2013-07-09 05:13:00,
2013-07-09 01:20:00,71.1,68.0,29.26,SSW,203,0.0,0.0,90,0.00,,,0.00,WSDL version 420,2013-07-09 05:20:00,
2013-07-09 01:30:00,70.9,67.8,29.26,SSW,203,0.0,0.0,90,0.00,,,0.00,WSDL version 420,2013-07-09 05:30:00,
2013-07-09 01:36:00,70.7,67.8,29.26,SSW,203,0.0,0.0,91,0.00,,,0.00,WSDL version 420,2013-07-09 05:36:00,
2013-07-09 01:44:00,70.7,68.0,29.23,SSW,203,0.0,0.0,91,-99.99,,,-99.99,WSDL version 420,2013-07-09 05:44:00,
2013-07-09 01:50:00,70.7,68.0,29.23,SSW,203,0.0,0.0,91,0.00,,,0.00,WSDL version 420,2013-07-09 05:50:00,
2013-07-09 01:59:00,70.5,67.8,29.23,SSW,203,0.0,0.0,91,0.00,,,0.00,WSDL version 420,2013-07-09 05:59:00,
2013-07-09 02:06:00,70.3,67.6,29.23,SSW,203,0.0,0.0,91,0.00,,,0.00,WSDL version 420,2013-07-09 06:06:00,
2013-07-09 02:13:00,70.3,68.0,29.23,SSW,203,0.0,0.0,92,0.00,,,0.00,WSDL version 420,2013-07-09 06:13:00,
2013-07-09 02:19:00,70.3,67.9,-100.00,SSW,203,0.0,0.0,92,0.00,,,0.00,WSDL version 420,2013-07-09 06:19:00,
2013-07-09 02:25:00,70.2,67.8,29.23,SSW,203,0.0,0.0,92,0.00,,,0.00,WSDL version 420,2013-07-09 06:25:00,
2013-07-09 02:31:00,70.2,67.8,29.23,SSW,203,0.0,0.0,92,0.00,,,0.00,WSDL version 420,2013-07-09 06:31:00,
2013-07-09 02:37:00,70.1,67.7,29.23,SSW,203,0.0,0.0,92,0.00,,,0.00,WSDL version 420,2013-07-09 06:37:00,
2013-07-09 02:43:00,70.0,67.6,29.23,SSW,203,0.0,0.0,92,0.00,,,0.00,WSDL version 420,2013-07-09 06:43:00,
2013-07-09 02:51:00,70.0,67.6,29.23,SSW,203,0.0,0.0,92,-99.99,,,-99.99,WSDL version 420,2013-07-09 06:51:00,
2013-07-09 02:57:00,69.8,67.4,29.23,SSW,203,0.0,0.0,92,0.00,,,0.00,WSDL version 420,2013-07-09 06:57:00,
2013-07-09 03:03:00,69.8,67.4,29.23,SSW,203,0.0,0.0,92,0.00,,,0.00,WSDL version 420,2013-07-09 07:03:00,
2013-07-09 03:09:00,69.8,67.4,29.23,SSW,203,0.0,0.0,92,-99.99,,,-99.99,WSDL version 420,2013-07-09 07:09:00,
2013-07-09 03:14:00,69.9,67.5,29.23,SSW,210,0.0,0.0,92,-99.99,,,-99.99,WSDL version 420,2013-07-09 07:14:00,
2013-07-09 03:20:00,70.0,67.6,-100.00,SSW,203,0.0,0.0,92,-99.99,,,-99.99,WSDL version 420,2013-07-09 07:20:00,
2013-07-09 03:31:00,70.2,68.1,29.23,SSW,210,0.0,0.0,93,0.00,,,0.00,WSDL version 420,2013-07-09 07:31:00,
2013-07-09 03:37:00,70.2,68.1,29.23,SSW,203,0.0,0.0,93,0.00,,,0.00,WSDL version 420,2013-07-09 07:37:00,
2013-07-09 03:43:00,70.0,68.0,29.23,SW,225,0.0,0.0,93,0.00,,,0.00,WSDL version 420,2013-07-09 07:43:00,
2013-07-09 03:54:00,70.0,68.0,29.23,SW,225,0.0,0.0,93,0.00,,,0.00,WSDL version 420,2013-07-09 07:54:00,
2013-07-09 04:03:00,69.8,67.4,29.23,SW,225,0.0,0.0,92,0.00,,,0.00,WSDL version 420,2013-07-09 08:03:00,
2013-07-09 04:09:00,69.8,67.4,29.23,SSW,203,0.0,0.0,92,0.00,,,0.00,WSDL version 420,2013-07-09 08:09:00,
2013-07-09 04:15:00,69.8,67.4,29.23,SSW,203,0.0,0.0,92,0.00,,,0.00,WSDL version 420,2013-07-09 08:15:00,
2013-07-09 04:21:00,69.8,67.4,29.23,SW,217,0.0,0.0,92,0.00,,,0.00,WSDL version 420,2013-07-09 08:21:00,
2013-07-09 04:26:00,69.8,67.4,29.23,SW,225,0.0,0.0,92,0.00,,,0.00,WSDL version 420,2013-07-09 08:26:00,
2013-07-09 04:35:00,69.8,67.4,29.23,SSW,209,0.0,0.0,92,0.00,,,0.00,WSDL version 420,2013-07-09 08:35:00,
2013-07-09 04:41:00,69.8,67.4,29.23,SW,225,0.0,0.0,92,0.00,,,0.00,WSDL version 420,2013-07-09 08:41:00,
2013-07-09 04:47:00,69.8,67.4,29.23,SSW,212,0.0,0.0,92,0.00,,,0.00,WSDL version 420,2013-07-09 08:47:00,
2013-07-09 04:58:00,69.6,67.6,29.23,SSW,203,0.0,0.0,93,0.00,,,0.00,WSDL version 420,2013-07-09 08:58:00,
2013-07-09 05:04:00,69.6,67.6,29.23,South,180,0.0,0.0,93,0.00,,,0.00,WSDL version 420,2013-07-09 09:04:00,
2013-07-09 05:11:00,69.6,67.6,29.23,SSW,203,0.0,0.0,93,-99.99,,,-99.99,WSDL version 420,2013-07-09 09:11:00,
2013-07-09 05:17:00,69.6,67.6,29.23,SSW,203,0.0,0.0,93,0.00,,,0.00,WSDL version 420,2013-07-09 09:17:00,
2013-07-09 05:23:00,69.6,67.6,29.23,South,180,0.0,0.0,93,0.00,,,0.00,WSDL version 420,2013-07-09 09:23:00,
2013-07-09 05:29:00,69.6,67.6,29.23,South,191,0.0,0.0,93,0.00,,,0.00,WSDL version 420,2013-07-09 09:29:00,
2013-07-09 05:35:00,69.6,67.6,29.23,SSW,203,0.0,0.0,93,0.00,,,0.00,WSDL version 420,2013-07-09 09:35:00,
2013-07-09 05:41:00,69.6,67.6,29.26,SSW,199,0.0,0.0,93,0.00,,,0.00,WSDL version 420,2013-07-09 09:41:00,
2013-07-09 05:47:00,69.6,67.6,29.26,SSW,203,0.0,0.0,93,0.00,,,0.00,WSDL version 420,2013-07-09 09:47:00,
2013-07-09 05:56:00,69.6,67.4,29.26,SSW,203,0.0,0.0,92,0.00,,,0.00,WSDL version 420,2013-07-09 09:56:00,
2013-07-09 06:02:00,69.7,67.5,29.26,SSW,203,0.0,0.0,92,0.00,,,0.00,WSDL version 420,2013-07-09 10:02:00,
2013-07-09 06:08:00,69.8,67.4,29.26,SSW,203,0.0,0.0,92,0.00,,,0.00,WSDL version 420,2013-07-09 10:08:00,
2013-07-09 06:17:00,70.0,67.6,29.26,SSW,203,0.0,0.0,92,0.00,,,0.00,WSDL version 420,2013-07-09 10:17:00,
2013-07-09 06:23:00,70.2,67.8,29.26,SSW,203,0.0,0.0,92,0.00,,,0.00,WSDL version 420,2013-07-09 10:23:00,
2013-07-09 06:28:00,70.2,67.8,-100.00,SSW,199,0.0,0.0,92,-99.99,,,-99.99,WSDL version 420,2013-07-09 10:28:00,
2013-07-09 06:34:00,70.2,67.8,29.26,South,188,0.0,0.0,92,0.00,,,0.00,WSDL version 420,2013-07-09 10:34:00,
2013-07-09 06:40:00,70.2,67.8,29.23,SSW,208,0.0,0.0,92,0.00,,,0.00,WSDL version 420,2013-07-09 10:40:00,
2013-07-09 06:46:00,70.3,67.6,29.23,SSW,203,0.0,0.0,91,0.00,,,0.00,WSDL version 420,2013-07-09 10:46:00,
2013-07-09 06:52:00,70.3,67.6,29.23,SSW,195,0.0,0.0,91,0.00,,,0.00,WSDL version 420,2013-07-09 10:52:00,
2013-07-09 06:59:00,70.5,67.8,29.26,SW,216,0.0,0.0,91,0.00,,,0.00,WSDL version 420,2013-07-09 10:59:00,
2013-07-09 07:05:00,70.5,67.8,29.26,SSW,208,0.0,0.0,91,0.00,,,0.00,WSDL version 420,2013-07-09 11:05:00,
2013-07-09 07:21:00,70.7,67.3,29.26,SW,225,0.0,0.0,89,-99.99,,,-99.99,WSDL version 420,2013-07-09 11:21:00,
2013-07-09 07:33:00,70.9,67.4,29.26,SSW,210,0.0,0.0,89,0.00,,,0.00,WSDL version 420,2013-07-09 11:33:00,
2013-07-09 07:39:00,70.9,67.4,29.26,SW,221,0.0,0.0,89,-99.99,,,-99.99,WSDL version 420,2013-07-09 11:39:00,
2013-07-09 07:45:00,70.9,67.3,29.26,SSW,205,0.0,0.0,88,0.00,,,0.00,WSDL version 420,2013-07-09 11:45:00,
2013-07-09 07:51:00,71.1,67.3,29.26,SSW,203,0.0,0.0,88,0.00,,,0.00,WSDL version 420,2013-07-09 11:51:00,
2013-07-09 07:57:00,71.1,67.3,29.23,SSW,198,0.0,0.0,88,0.00,,,0.00,WSDL version 420,2013-07-09 11:57:00,
2013-07-09 08:03:00,71.2,67.4,29.23,SSW,203,0.0,0.0,88,0.00,,,0.00,WSDL version 420,2013-07-09 12:03:00,
2013-07-09 08:08:00,71.3,67.5,29.23,SSW,203,0.0,0.0,88,0.00,,,0.00,WSDL version 420,2013-07-09 12:08:00,
2013-07-09 08:14:00,71.5,67.6,29.26,SSW,203,0.0,0.0,87,0.00,,,0.00,WSDL version 420,2013-07-09 12:14:00,
2013-07-09 08:20:00,71.7,67.5,29.26,SSW,203,0.0,0.0,87,0.00,,,0.00,WSDL version 420,2013-07-09 12:20:00,
2013-07-09 08:26:00,71.9,67.5,29.26,SW,221,0.0,0.0,86,0.00,,,0.00,WSDL version 420,2013-07-09 12:26:00,
2013-07-09 08:32:00,72.2,67.6,29.26,SSW,203,0.0,0.0,86,0.00,,,0.00,WSDL version 420,2013-07-09 12:32:00,
2013-07-09 08:38:00,72.5,68.0,29.26,SSW,203,0.0,0.0,86,0.00,,,0.00,WSDL version 420,2013-07-09 12:38:00,
2013-07-09 08:44:00,73.4,68.4,29.26,SSW,203,0.0,0.0,84,-99.99,,,-99.99,WSDL version 420,2013-07-09 12:44:00,
2013-07-09 08:53:00,74.8,69.8,29.26,SSW,203,0.0,0.0,84,-99.99,,,-99.99,WSDL version 420,2013-07-09 12:53:00,
2013-07-09 09:01:00,75.1,69.1,-100.00,SW,218,0.0,0.0,81,0.00,,,0.00,WSDL version 420,2013-07-09 13:01:00,
2013-07-09 09:06:00,75.1,67.8,29.23,SW,214,0.0,0.0,77,0.00,,,0.00,WSDL version 420,2013-07-09 13:06:00,
2013-07-09 09:12:00,75.0,67.6,29.26,SW,215,0.0,0.0,77,0.00,,,0.00,WSDL version 420,2013-07-09 13:12:00,
2013-07-09 09:18:00,75.0,67.3,29.26,SW,225,0.0,0.0,77,-99.99,,,-99.99,WSDL version 420,2013-07-09 13:18:00,
2013-07-09 09:27:00,75.0,66.9,29.26,SSW,203,0.0,0.0,76,-99.99,,,-99.99,WSDL version 420,2013-07-09 13:27:00,
2013-07-09 09:33:00,75.3,67.2,29.26,SW,214,0.0,0.0,76,-99.99,,,-99.99,WSDL version 420,2013-07-09 13:33:00,
2013-07-09 09:55:00,76.0,67.3,29.26,SW,225,0.0,0.0,75,0.00,,,0.00,WSDL version 420,2013-07-09 13:55:00,
2013-07-09 10:00:00,76.3,67.6,-100.00,SSW,210,0.0,0.0,74,0.00,,,0.00,WSDL version 420,2013-07-09 14:00:00,
2013-07-09 10:06:00,76.3,66.8,29.26,SSW,206,0.0,0.0,72,0.00,,,0.00,WSDL version 420,2013-07-09 14:06:00,
2013-07-09 10:12:00,76.5,66.9,-100.00,SW,225,0.0,0.0,72,-99.99,,,-99.99,WSDL version 420,2013-07-09 14:12:00,
2013-07-09 10:18:00,76.7,67.4,29.23,SSW,210,0.0,0.0,73,-99.99,,,-99.99,WSDL version 420,2013-07-09 14:18:00,
2013-07-09 10:24:00,77.0,67.7,29.26,SW,218,0.0,0.0,73,-99.99,,,-99.99,WSDL version 420,2013-07-09 14:24:00,
2013-07-09 10:33:00,77.6,68.3,29.26,SSW,203,0.0,0.0,73,0.00,,,0.00,WSDL version 420,2013-07-09 14:33:00,
2013-07-09 10:39:00,78.5,69.0,29.26,SSW,212,0.0,0.0,72,0.00,,,0.00,WSDL version 420,2013-07-09 14:39:00,
2013-07-09 10:48:00,80.4,69.3,29.26,SSW,210,0.0,0.0,69,0.00,,,0.00,WSDL version 420,2013-07-09 14:48:00,
2013-07-09 10:54:00,80.7,68.5,29.23,SSW,203,0.0,0.0,67,0.00,,,0.00,WSDL version 420,2013-07-09 14:54:00,
2013-07-09 11:00:00,80.8,68.1,29.23,SSW,203,0.0,0.0,65,0.00,,,0.00,WSDL version 420,2013-07-09 15:00:00,
2013-07-09 11:06:00,81.5,68.7,29.23,SW,225,0.0,0.0,65,-99.99,,,-99.99,WSDL version 420,2013-07-09 15:06:00,
2013-07-09 11:11:00,82.2,69.1,29.23,SSW,206,0.0,0.0,64,0.00,,,0.00,WSDL version 420,2013-07-09 15:11:00,
2013-07-09 11:17:00,82.9,68.8,-100.00,SW,222,0.0,0.0,62,-99.99,,,-99.99,WSDL version 420,2013-07-09 15:17:00,
2013-07-09 11:23:00,83.5,68.9,29.23,SW,221,0.0,0.0,61,-99.99,,,-99.99,WSDL version 420,2013-07-09 15:23:00,
2013-07-09 11:29:00,84.2,69.0,-100.00,ESE,113,0.0,0.0,60,0.00,,,0.00,WSDL version 420,2013-07-09 15:29:00,
2013-07-09 11:34:00,84.9,69.0,29.23,SW,236,0.0,0.0,59,0.00,,,0.00,WSDL version 420,2013-07-09 15:34:00,
2013-07-09 11:40:00,84.5,67.9,29.23,SW,225,0.0,0.0,58,0.00,,,0.00,WSDL version 420,2013-07-09 15:40:00,
2013-07-09 11:46:00,85.0,68.4,29.23,SSW,209,0.0,0.0,57,0.00,,,0.00,WSDL version 420,2013-07-09 15:46:00,
2013-07-09 11:52:00,85.6,68.2,29.23,South,180,0.0,0.0,56,0.00,,,0.00,WSDL version 420,2013-07-09 15:52:00,
2013-07-09 11:54:00,85.9,68.2,29.23,SSW,209,0.0,0.0,55,0.00,,,0.00,WSDL version 420,2013-07-09 15:54:00,
2013-07-09 12:00:00,85.5,66.9,29.23,SSW,212,0.0,0.0,54,-99.99,,,-99.99,WSDL version 420,2013-07-09 16:00:00,
2013-07-09 12:06:00,86.7,68.5,29.23,SW,225,0.0,0.0,54,-99.99,,,-99.99,WSDL version 420,2013-07-09 16:06:00,
2013-07-09 12:15:00,88.5,68.1,29.23,WSW,244,0.0,0.0,51,0.00,,,0.00,WSDL version 420,2013-07-09 16:15:00,
2013-07-09 12:22:00,88.0,65.8,29.23,SW,225,0.0,0.0,48,0.00,,,0.00,WSDL version 420,2013-07-09 16:22:00,
2013-07-09 12:28:00,87.7,65.3,29.21,SW,228,0.0,0.0,46,0.00,,,0.00,WSDL version 420,2013-07-09 16:28:00,
2013-07-09 12:33:00,87.1,64.4,29.21,WSW,240,0.0,0.0,47,-99.99,,,-99.99,WSDL version 420,2013-07-09 16:33:00,
2013-07-09 12:39:00,87.4,64.7,29.21,SSW,206,0.0,0.0,47,0.00,,,0.00,WSDL version 420,2013-07-09 16:39:00,
2013-07-09 12:47:00,87.3,63.3,29.21,SW,225,0.0,0.0,45,-99.99,,,-99.99,WSDL version 420,2013-07-09 16:47:00,
2013-07-09 12:53:00,87.0,63.5,29.21,SSW,199,0.0,0.0,46,0.00,,,0.00,WSDL version 420,2013-07-09 16:53:00,
2013-07-09 12:59:00,86.4,62.9,29.21,WSW,248,0.0,0.0,46,0.00,,,0.00,WSDL version 420,2013-07-09 16:59:00,
2013-07-09 13:05:00,85.5,62.5,29.21,SW,225,0.0,0.0,47,0.00,,,0.00,WSDL version 420,2013-07-09 17:05:00,
2013-07-09 13:11:00,84.7,62.3,29.21,SW,222,0.0,0.0,47,0.00,,,0.00,WSDL version 420,2013-07-09 17:11:00,
2013-07-09 13:18:00,84.0,62.2,29.21,SW,225,0.0,0.0,49,0.00,,,0.00,WSDL version 420,2013-07-09 17:18:00,
2013-07-09 13:24:00,83.7,62.7,29.21,SW,219,0.0,0.0,51,0.00,,,0.00,WSDL version 420,2013-07-09 17:24:00,
2013-07-09 13:30:00,83.3,63.2,29.21,SSW,210,0.0,0.0,52,0.00,,,0.00,WSDL version 420,2013-07-09 17:30:00,
2013-07-09 13:36:00,83.2,63.5,29.21,SSW,205,0.0,0.0,52,-99.99,,,-99.99,WSDL version 420,2013-07-09 17:36:00,
2013-07-09 13:42:00,83.3,64.1,29.21,SW,225,0.0,0.0,53,0.00,,,0.00,WSDL version 420,2013-07-09 17:42:00,
2013-07-09 13:48:00,83.5,64.2,29.21,SW,225,0.0,0.0,53,-99.99,,,-99.99,WSDL version 420,2013-07-09 17:48:00,
2013-07-09 13:54:00,83.4,64.5,29.21,SW,225,0.0,0.0,53,0.00,,,0.00,WSDL version 420,2013-07-09 17:54:00,
2013-07-09 14:00:00,83.2,65.1,29.18,SW,215,0.0,0.0,55,0.00,,,0.00,WSDL version 420,2013-07-09 18:00:00,
2013-07-09 14:08:00,82.9,65.9,29.18,SW,216,0.0,0.0,57,0.00,,,0.00,WSDL version 420,2013-07-09 18:08:00,
2013-07-09 14:15:00,82.9,66.6,29.21,SW,225,0.0,0.0,59,0.00,,,0.00,WSDL version 420,2013-07-09 18:15:00,
2013-07-09 14:21:00,82.6,67.5,29.21,SSW,203,0.0,0.0,61,-99.99,,,-99.99,WSDL version 420,2013-07-09 18:21:00,
2013-07-09 14:27:00,82.2,66.9,29.21,SW,233,0.0,0.0,59,-99.99,,,-99.99,WSDL version 420,2013-07-09 18:27:00,
2013-07-09 14:39:00,81.1,65.0,29.21,SSW,199,0.0,0.0,58,0.00,,,0.00,WSDL version 420,2013-07-09 18:39:00,
2013-07-09 14:45:00,81.1,65.3,29.21,SSW,203,0.0,0.0,59,0.00,,,0.00,WSDL version 420,2013-07-09 18:45:00,
2013-07-09 14:51:00,81.3,65.9,29.21,SSW,203,0.0,0.0,60,0.00,,,0.00,WSDL version 420,2013-07-09 18:51:00,
2013-07-09 14:57:00,81.8,66.2,29.21,SSW,203,0.0,0.0,59,0.00,,,0.00,WSDL version 420,2013-07-09 18:57:00,
2013-07-09 15:04:00,81.9,65.6,29.21,SSW,203,0.0,0.0,58,0.00,,,0.00,WSDL version 420,2013-07-09 19:04:00,
2013-07-09 15:10:00,82.0,66.2,29.21,SSW,199,0.0,0.0,59,0.00,,,0.00,WSDL version 420,2013-07-09 19:10:00,
2013-07-09 15:16:00,82.6,66.7,29.21,SSW,210,0.0,0.0,59,0.00,,,0.00,WSDL version 420,2013-07-09 19:16:00,
2013-07-09 15:22:00,83.2,67.0,29.21,SSW,203,0.0,0.0,58,0.00,,,0.00,WSDL version 420,2013-07-09 19:22:00,
2013-07-09 15:31:00,83.7,66.8,29.21,SW,225,0.0,0.0,57,0.00,,,0.00,WSDL version 420,2013-07-09 19:31:00,
2013-07-09 15:37:00,84.0,67.0,29.21,SW,225,0.0,0.0,56,0.00,,,0.00,WSDL version 420,2013-07-09 19:37:00,
2013-07-09 15:43:00,83.9,65.9,29.21,SSW,203,0.0,0.0,54,0.00,,,0.00,WSDL version 420,2013-07-09 19:43:00,
2013-07-09 15:49:00,83.4,65.5,29.21,SSW,193,0.0,0.0,55,0.00,,,0.00,WSDL version 420,2013-07-09 19:49:00,
2013-07-09 15:55:00,83.5,65.6,29.18,SSW,199,0.0,0.0,55,0.00,,,0.00,WSDL version 420,2013-07-09 19:55:00,
2013-07-09 16:00:00,83.6,65.7,29.18,South,183,0.0,0.0,55,-99.99,,,-99.99,WSDL version 420,2013-07-09 20:00:00,
2013-07-09 16:06:00,83.7,66.1,29.18,SSW,203,0.0,0.0,55,-99.99,,,-99.99,WSDL version 420,2013-07-09 20:06:00,
2013-07-09 16:12:00,83.5,65.8,29.18,South,188,0.0,0.0,55,0.00,,,0.00,WSDL version 420,2013-07-09 20:12:00,
2013-07-09 16:18:00,83.5,66.4,29.18,SSW,203,0.0,0.0,56,0.00,,,0.00,WSDL version 420,2013-07-09 20:18:00,
2013-07-09 16:24:00,83.5,66.7,29.18,SSW,203,0.0,0.0,57,-99.99,,,-99.99,WSDL version 420,2013-07-09 20:24:00,
2013-07-09 16:30:00,83.1,66.7,29.15,SSW,203,0.0,0.0,58,-99.99,,,-99.99,WSDL version 420,2013-07-09 20:30:00,
2013-07-09 16:36:00,82.8,66.5,29.15,SW,216,0.0,0.0,58,0.00,,,0.00,WSDL version 420,2013-07-09 20:36:00,
2013-07-09 16:43:00,81.3,66.7,29.18,SSW,203,0.0,0.0,62,0.00,,,0.00,WSDL version 420,2013-07-09 20:43:00,
2013-07-09 16:49:00,80.1,67.1,29.18,SW,225,0.0,0.0,65,0.00,,,0.00,WSDL version 420,2013-07-09 20:49:00,
2013-07-09 16:55:00,79.3,67.0,29.15,SSW,203,0.0,0.0,68,-99.99,,,-99.99,WSDL version 420,2013-07-09 20:55:00,
2013-07-09 17:01:00,78.7,67.3,29.15,SW,225,0.0,0.0,69,-99.99,,,-99.99,WSDL version 420,2013-07-09 21:01:00,
2013-07-09 17:06:00,78.0,67.4,-100.00,SW,236,0.0,0.0,70,0.00,,,0.00,WSDL version 420,2013-07-09 21:06:00,
2013-07-09 17:14:00,77.0,67.3,29.15,SW,225,0.0,0.0,72,0.00,,,0.00,WSDL version 420,2013-07-09 21:14:00,
2013-07-09 17:20:00,76.7,67.2,29.15,SW,225,0.0,0.0,73,-99.99,,,-99.99,WSDL version 420,2013-07-09 21:20:00,
2013-07-09 17:26:00,76.6,67.5,29.15,SW,221,0.0,0.0,74,-99.99,,,-99.99,WSDL version 420,2013-07-09 21:26:00,
2013-07-09 17:32:00,76.5,67.7,29.15,SSW,203,0.0,0.0,74,0.00,,,0.00,WSDL version 420,2013-07-09 21:32:00,
2013-07-09 17:38:00,76.3,67.7,29.15,SSW,207,0.0,0.0,75,0.00,,,0.00,WSDL version 420,2013-07-09 21:38:00,
2013-07-09 17:44:00,76.2,67.9,29.15,SSW,206,0.0,0.0,76,0.00,,,0.00,WSDL version 420,2013-07-09 21:44:00,
2013-07-09 17:51:00,76.1,68.0,29.15,West,270,0.0,0.0,76,0.00,,,0.00,WSDL version 420,2013-07-09 21:51:00,
2013-07-09 17:57:00,76.3,68.2,29.15,SSW,203,0.0,0.0,76,0.00,,,0.00,WSDL version 420,2013-07-09 21:57:00,
2013-07-09 18:03:00,76.2,68.1,29.15,SSW,209,0.0,0.0,76,0.00,,,0.00,WSDL version 420,2013-07-09 22:03:00,
2013-07-09 18:09:00,76.3,68.2,29.15,SW,217,0.0,0.0,76,0.00,,,0.00,WSDL version 420,2013-07-09 22:09:00,
2013-07-09 18:15:00,76.4,68.2,29.15,SSW,203,0.0,0.0,76,0.00,,,0.00,WSDL version 420,2013-07-09 22:15:00,
2013-07-09 18:21:00,76.5,68.3,29.15,WSW,242,0.0,1.1,76,0.00,,,0.00,WSDL version 420,2013-07-09 22:21:00,
2013-07-09 18:30:00,76.6,68.1,29.15,SW,217,0.0,3.1,75,0.00,,,0.00,WSDL version 420,2013-07-09 22:30:00,
2013-07-09 18:35:00,76.7,68.0,29.15,SSW,203,0.0,3.1,74,0.00,,,0.00,WSDL version 420,2013-07-09 22:35:00,
2013-07-09 18:41:00,76.8,67.9,29.15,SW,229,0.0,4.3,74,0.00,,,0.00,WSDL version 420,2013-07-09 22:41:00,
2013-07-09 18:47:00,76.8,67.5,29.15,SW,216,0.0,4.3,73,0.00,,,0.00,WSDL version 420,2013-07-09 22:47:00,
2013-07-09 18:53:00,76.8,67.5,29.15,SSW,210,0.0,0.0,73,-99.99,,,-99.99,WSDL version 420,2013-07-09 22:53:00,
2013-07-09 18:58:00,76.8,67.9,29.18,SSW,203,0.0,0.0,74,0.00,,,0.00,WSDL version 420,2013-07-09 22:58:00,
2013-07-09 19:04:00,76.6,67.7,29.18,SW,219,0.0,0.0,74,0.00,,,0.00,WSDL version 420,2013-07-09 23:04:00,
2013-07-09 19:10:00,76.5,67.6,29.15,SW,225,0.0,0.0,74,0.00,,,0.00,WSDL version 420,2013-07-09 23:10:00,
2013-07-09 19:16:00,76.5,67.8,29.15,SSW,212,0.0,0.0,75,0.00,,,0.00,WSDL version 420,2013-07-09 23:16:00,
2013-07-09 19:22:00,76.6,68.0,29.15,SW,225,0.0,0.0,75,0.00,,,0.00,WSDL version 420,2013-07-09 23:22:00,
2013-07-09 19:29:00,77.0,68.5,29.15,SSE,158,0.0,0.0,75,-99.99,,,-99.99,WSDL version 420,2013-07-09 23:29:00,
2013-07-09 19:35:00,77.2,68.7,29.15,SW,225,0.0,3.1,75,0.00,,,0.00,WSDL version 420,2013-07-09 23:35:00,
2013-07-09 19:41:00,77.4,68.6,29.15,SW,225,0.0,2.5,74,-99.99,,,-99.99,WSDL version 420,2013-07-09 23:41:00,
2013-07-09 19:47:00,77.2,68.4,29.15,SSW,210,0.0,1.6,75,0.00,,,0.00,WSDL version 420,2013-07-09 23:47:00,
2013-07-09 19:53:00,77.0,68.5,29.15,SW,225,0.0,0.0,75,0.00,,,0.00,WSDL version 420,2013-07-09 23:53:00,
2013-07-09 19:59:00,76.9,68.5,29.15,SSW,197,0.0,0.0,76,-99.99,,,-99.99,WSDL version 420,2013-07-09 23:59:00,
2013-07-09 20:04:00,76.6,68.1,29.15,SSW,203,0.0,0.0,75,0.00,,,0.00,WSDL version 420,2013-07-10 00:04:00,
2013-07-09 20:08:00,76.6,68.2,29.15,SSW,203,0.0,0.0,76,0.00,,,0.00,WSDL version 420,2013-07-10 00:08:00,
2013-07-09 20:14:00,76.3,68.2,29.15,SSW,203,0.0,0.0,76,0.00,,,0.00,WSDL version 420,2013-07-10 00:14:00,
2013-07-09 20:20:00,76.1,68.0,29.15,SSW,203,0.0,0.0,76,0.00,,,0.00,WSDL version 420,2013-07-10 00:20:00,
2013-07-09 20:26:00,76.0,67.9,29.15,SSW,203,0.0,0.0,76,0.00,,,0.00,WSDL version 420,2013-07-10 00:26:00,
2013-07-09 20:32:00,75.7,67.9,29.15,SW,225,0.0,0.9,77,-99.99,,,-99.99,WSDL version 420,2013-07-10 00:32:00,
2013-07-09 20:38:00,75.5,67.8,29.15,SW,217,0.0,0.0,77,0.00,,,0.00,WSDL version 420,2013-07-10 00:38:00,
2013-07-09 20:44:00,75.2,67.9,29.15,SSW,206,0.0,0.0,78,0.00,,,0.00,WSDL version 420,2013-07-10 00:44:00,
2013-07-09 20:50:00,75.2,67.9,29.15,SSW,203,0.0,0.0,78,0.00,,,0.00,WSDL version 420,2013-07-10 00:50:00,
2013-07-09 20:56:00,75.0,68.0,29.15,SSW,203,0.0,0.0,79,0.00,,,0.00,WSDL version 420,2013-07-10 00:56:00,
2013-07-09 21:01:00,74.8,67.9,29.15,SSW,203,0.0,0.0,79,0.00,,,0.00,WSDL version 420,2013-07-10 01:01:00,
2013-07-09 21:07:00,74.7,67.8,29.15,SSW,203,0.0,0.0,79,0.00,,,0.00,WSDL version 420,2013-07-10 01:07:00,
2013-07-09 21:13:00,74.5,67.9,29.15,SSW,203,0.0,0.0,80,0.00,,,0.00,WSDL version 420,2013-07-10 01:13:00,
2013-07-09 21:18:00,74.3,67.7,29.15,SSW,203,0.0,0.0,80,0.00,,,0.00,WSDL version 420,2013-07-10 01:18:00,
2013-07-09 21:25:00,74.1,68.0,29.15,SSW,203,0.0,0.0,81,-99.99,,,-99.99,WSDL version 420,2013-07-10 01:25:00,
2013-07-09 21:31:00,73.9,67.8,29.15,SSW,203,0.0,0.0,81,0.00,,,0.00,WSDL version 420,2013-07-10 01:31:00,
2013-07-09 21:54:00,73.8,68.4,-100.00,North,-999,-999.0,-999.0,83,-99.99,,,-99.99,WSDL version 420,2013-07-10 01:54:00,
2013-07-09 22:07:00,73.9,69.0,29.12,SSW,203,0.0,0.0,84,0.00,,,0.00,WSDL version 420,2013-07-10 02:07:00,
2013-07-09 22:12:00,73.9,69.0,29.12,SW,225,0.0,0.0,84,0.00,,,0.00,WSDL version 420,2013-07-10 02:12:00,
2013-07-09 22:18:00,73.9,69.0,29.12,SW,225,0.0,0.0,84,0.00,,,0.00,WSDL version 420,2013-07-10 02:18:00,
2013-07-09 22:29:00,73.8,68.8,-100.00,SSW,203,0.0,0.0,84,0.00,,,0.00,WSDL version 420,2013-07-10 02:29:00,
2013-07-09 22:35:00,73.8,68.8,29.18,SSW,203,0.0,0.0,84,0.00,,,0.00,WSDL version 420,2013-07-10 02:35:00,
2013-07-09 22:41:00,73.8,68.8,29.15,SSW,203,0.0,0.0,84,0.00,,,0.00,WSDL version 420,2013-07-10 02:41:00,
2013-07-09 22:49:00,73.6,68.7,29.15,SSW,203,0.0,0.0,85,0.00,,,0.00,WSDL version 420,2013-07-10 02:49:00,
2013-07-09 22:56:00,73.4,68.8,29.15,SSW,203,0.0,0.0,86,-99.99,,,-99.99,WSDL version 420,2013-07-10 02:56:00,
2013-07-09 23:02:00,73.4,68.8,29.15,SSW,203,0.0,0.0,86,0.00,,,0.00,WSDL version 420,2013-07-10 03:02:00,
2013-07-09 23:05:00,73.4,68.8,29.15,SSW,203,0.0,0.0,86,0.00,,,0.00,WSDL version 420,2013-07-10 03:05:00,
2013-07-09 23:11:00,73.3,68.7,29.15,SSW,210,0.0,0.0,86,0.00,,,0.00,WSDL version 420,2013-07-10 03:11:00,
2013-07-09 23:16:00,73.2,68.8,29.15,SSW,203,0.0,0.0,86,0.00,,,0.00,WSDL version 420,2013-07-10 03:16:00,
2013-07-09 23:24:00,73.2,69.0,29.15,SSW,203,0.0,0.0,87,-99.99,,,-99.99,WSDL version 420,2013-07-10 03:24:00,
2013-07-09 23:30:00,73.2,69.0,29.15,SSW,203,0.0,0.0,87,0.00,,,0.00,WSDL version 420,2013-07-10 03:30:00,
2013-07-09 23:35:00,73.2,69.0,29.15,SSW,203,0.0,0.0,87,0.00,,,0.00,WSDL version 420,2013-07-10 03:35:00,
2013-07-09 23:47:00,73.0,68.8,29.15,SSW,203,0.0,0.0,87,0.00,,,0.00,WSDL version 420,2013-07-10 03:47:00,
2013-07-09 23:53:00,73.0,68.8,29.15,SSW,203,0.0,0.0,87,0.00,,,0.00,WSDL version 420,2013-07-10 03:53:00,